This is the latest recevied weather packets stored in our database for station/object KK6LZB. If no packets are shown the sender has not sent any weather packets the latest 10 day(s).
| Time | Temp. | Humidity | Pressure | Rain* | Wind** | Luminosity | Snow |
|---|---|---|---|---|---|---|---|
| 1777842799 | 21.67° C | 60% | 1015.9 hPa | 0 mm | - | 674 W/m² | - |
| 1777842499 | 20.56° C | 60% | 1015.9 hPa | 0 mm | - | 673 W/m² | - |
| 1777842197 | 20.56° C | 60% | 1015.9 hPa | 0 mm | - | 681 W/m² | - |
| 1777841892 | 21.67° C | 59% | 1015.9 hPa | 0 mm | - | 684 W/m² | - |
| 1777841588 | 21.11° C | 60% | 1015.7 hPa | 0 mm | - | 701 W/m² | - |
| 1777841285 | 21.67° C | 60% | 1015.8 hPa | 0 mm | - | 713 W/m² | - |
| 1777840983 | 21.67° C | 60% | 1015.7 hPa | 0 mm | - | 706 W/m² | - |
| 1777840680 | 20° C | 67% | 1015.9 hPa | 0 mm | - | 704 W/m² | - |
| 1777840377 | 20° C | 66% | 1016.2 hPa | 0 mm | - | 661 W/m² | - |
| 1777840074 | 19.44° C | 68% | 1016.2 hPa | 0 mm | - | 698 W/m² | - |
| 1777839772 | 18.89° C | 69% | 1016.3 hPa | 0 mm | - | 557 W/m² | - |
| 1777839469 | 20° C | 68% | 1016 hPa | 0 mm | - | 403 W/m² | - |
| 1777839167 | 19.44° C | 67% | 1016.4 hPa | 0 mm | - | 758 W/m² | - |
| 1777838864 | 20° C | 68% | 1016.2 hPa | 0 mm | - | 387 W/m² | - |
| 1777838560 | 19.44° C | 68% | 1016.1 hPa | 0 mm | - | 354 W/m² | - |
| 1777838257 | 18.89° C | 69% | 1016.1 hPa | 0 mm | - | 391 W/m² | - |
| 1777837953 | 18.33° C | 69% | 1016.4 hPa | 0 mm | - | 290 W/m² | - |
| 1777837652 | 18.89° C | 68% | 1016.2 hPa | 0 mm | - | 317 W/m² | - |
| 1777837346 | 18.89° C | 69% | 1016.3 hPa | 0 mm | - | 276 W/m² | - |
| 1777837043 | 18.89° C | 69% | 1016.5 hPa | 0 mm | - | 292 W/m² | - |
| 1777836739 | 19.44° C | 68% | 1016.4 hPa | 0 mm | - | 295 W/m² | - |
| 1777836435 | 19.44° C | 68% | 1016.4 hPa | 0 mm | - | 272 W/m² | - |
| 1777836130 | 20.56° C | 68% | 1016.7 hPa | 0 mm | - | 276 W/m² | - |
| 1777835827 | 20.56° C | 68% | 1016.5 hPa | 0 mm | - | 345 W/m² | - |
| 1777835525 | 20.56° C | 69% | 1016.5 hPa | 0 mm | - | 510 W/m² | - |
* Rain latest hour (hover to see other rain measurements)
** Current wind speed in m/s (hover to see current wind gust speed)